• In Uzbekistan
  • List of Countries
  • For 7 days
  • Water Temperature
  • Satellite Maps
  • Weather Map
  • Weather Widgets
  • user-avatar
    Login

    Hourly Weather Townsville

    Today, 23 February, Thursday

    Time Temperature Precipitation Wind Pressure Humidity
    00:00 +26°C° 0.3 mm 4 mps 753 mmHg 93%
    01:00 +26°C° 0.3 mm 4 mps 753 mmHg 94%
    02:00 +26°C° 0.4 mm 3 mps 753 mmHg 95%
    03:00 +26°C° 0.4 mm 3 mps 753 mmHg 96%
    04:00 +25°C° 0 mm 3 mps 752 mmHg 97%
    05:00 +26°C° 0.5 mm 3 mps 753 mmHg 96%
    06:00 +26°C° 0.5 mm 3 mps 753 mmHg 95%
    07:00 +26°C° 0.5 mm 3 mps 753 mmHg 95%
    08:00 +28°C° 0.1 mm 4 mps 753 mmHg 86%
    09:00 +29°C° 0.1 mm 4 mps 753 mmHg 78%
    10:00 +32°C° 0 mm 4 mps 754 mmHg 70%
    11:00 +33°C° 0.9 mm 4 mps 753 mmHg 69%
    12:00 +33°C° 0.9 mm 4 mps 753 mmHg 68%
    13:00 +34°C° 0.9 mm 4 mps 752 mmHg 68%
    14:00 +34°C° 1.8 mm 5 mps 752 mmHg 71%
    15:00 +33°C° 1.8 mm 5 mps 752 mmHg 74%
    16:00 +32°C° 0 mm 5 mps 752 mmHg 79%
    17:00 +30°C° 1.6 mm 5 mps 752 mmHg 83%
    18:00 +29°C° 1.6 mm 5 mps 752 mmHg 87%
    19:00 +28°C° 1.6 mm 5 mps 752 mmHg 91%
    20:00 +27°C° 0.9 mm 5 mps 753 mmHg 91%
    21:00 +27°C° 0.9 mm 5 mps 753 mmHg 92%
    22:00 +27°C° 0.9 mm 5 mps 753 mmHg 93%
    23:00 +27°C° 1.1 mm 5 mps 753 mmHg 94%

    Tomorrow, 24 February, Friday

    Time Temperature Precipitation Wind Pressure Humidity
    00:00 +26°C° 1.1 mm 5 mps 753 mmHg 94%
    01:00 +26°C° 1.1 mm 5 mps 753 mmHg 95%
    02:00 +26°C° 1.2 mm 5 mps 753 mmHg 96%
    03:00 +26°C° 1.2 mm 5 mps 752 mmHg 97%
    04:00 +26°C° 1.2 mm 5 mps 752 mmHg 97%
    05:00 +26°C° 0.5 mm 5 mps 752 mmHg 97%
    06:00 +26°C° 0.5 mm 5 mps 753 mmHg 97%
    07:00 +26°C° 0.5 mm 5 mps 753 mmHg 96%
    08:00 +28°C° 0 mm 5 mps 753 mmHg 86%
    09:00 +30°C° 0 mm 5 mps 753 mmHg 76%
    10:00 +33°C° 0 mm 5 mps 753 mmHg 66%
    11:00 +34°C° 0 mm 5 mps 753 mmHg 61%
    12:00 +35°C° 0 mm 5 mps 752 mmHg 56%
    13:00 +36°C° 0 mm 5 mps 752 mmHg 52%
    14:00 +35°C° 0.6 mm 5 mps 751 mmHg 57%
    15:00 +34°C° 0.6 mm 5 mps 751 mmHg 63%
    16:00 +34°C° 0.6 mm 5 mps 750 mmHg 69%
    17:00 +32°C° 1.5 mm 5 mps 751 mmHg 76%
    18:00 +29°C° 1.5 mm 5 mps 751 mmHg 83%
    19:00 +28°C° 1.5 mm 4 mps 751 mmHg 91%
    20:00 +28°C° 1.2 mm 4 mps 752 mmHg 92%
    21:00 +27°C° 1.2 mm 4 mps 752 mmHg 93%
    22:00 +27°C° 1.2 mm 4 mps 753 mmHg 95%
    23:00 +27°C° 0.7 mm 4 mps 752 mmHg 95%

    Day after tomorrow, 25 February, Saturday

    Time Temperature Precipitation Wind Pressure Humidity
    00:00 +26°C° 0.7 mm 4 mps 752 mmHg 96%
    01:00 +26°C° 0.7 mm 4 mps 752 mmHg 97%
    02:00 +26°C° 1 mm 4 mps 751 mmHg 97%
    03:00 +26°C° 1 mm 4 mps 751 mmHg 97%
    04:00 +26°C° 1 mm 3 mps 751 mmHg 98%
    05:00 +26°C° 1.3 mm 4 mps 751 mmHg 97%
    06:00 +26°C° 1.3 mm 4 mps 751 mmHg 96%
    07:00 +26°C° 1.3 mm 4 mps 752 mmHg 96%
    08:00 +28°C° 1.1 mm 4 mps 752 mmHg 86%
    09:00 +30°C° 1.1 mm 5 mps 752 mmHg 77%
    10:00 +32°C° 1.1 mm 5 mps 752 mmHg 67%
    11:00 +33°C° 0.1 mm 5 mps 752 mmHg 61%
    12:00 +34°C° 0.1 mm 5 mps 751 mmHg 55%
    13:00 +35°C° 0.1 mm 5 mps 751 mmHg 50%
    14:00 +35°C° 0.2 mm 5 mps 750 mmHg 54%
    15:00 +34°C° 0.2 mm 5 mps 750 mmHg 58%
    16:00 +33°C° 0.2 mm 5 mps 749 mmHg 62%
    17:00 +32°C° 0.2 mm 5 mps 750 mmHg 70%
    18:00 +29°C° 0.2 mm 4 mps 750 mmHg 77%
    19:00 +27°C° 0.2 mm 4 mps 750 mmHg 85%
    20:00 +27°C° 0 mm 4 mps 751 mmHg 86%
    21:00 +27°C° 0 mm 4 mps 751 mmHg 87%
    22:00 +26°C° 0 mm 4 mps 752 mmHg 88%
    23:00 +26°C° 0.1 mm 4 mps 751 mmHg 90%

    26 February, Sunday

    Time Temperature Precipitation Wind Pressure Humidity
    00:00 +26°C° 0.1 mm 4 mps 751 mmHg 91%
    01:00 +25°C° 0.1 mm 3 mps 751 mmHg 93%
    02:00 +25°C° 0 mm 3 mps 750 mmHg 94%
    03:00 +25°C° 0 mm 3 mps 750 mmHg 95%
    04:00 +24°C° 0 mm 3 mps 750 mmHg 96%
    05:00 +25°C° 0 mm 4 mps 750 mmHg 96%
    06:00 +25°C° 0 mm 4 mps 751 mmHg 95%
    07:00 +25°C° 0 mm 4 mps 751 mmHg 95%
    08:00 +27°C° 0 mm 4 mps 751 mmHg 84%
    09:00 +29°C° 0 mm 4 mps 752 mmHg 73%
    10:00 +32°C° 0 mm 5 mps 752 mmHg 62%
    11:00 +33°C° 0 mm 5 mps 751 mmHg 56%
    12:00 +34°C° 0 mm 5 mps 751 mmHg 51%
    13:00 +35°C° 0 mm 5 mps 750 mmHg 45%
    14:00 +35°C° 0 mm 5 mps 750 mmHg 48%
    15:00 +34°C° 0 mm 5 mps 749 mmHg 52%
    16:00 +34°C° 0 mm 6 mps 749 mmHg 55%
    17:00 +32°C° 0.2 mm 5 mps 749 mmHg 64%
    18:00 +29°C° 0.2 mm 5 mps 750 mmHg 73%
    19:00 +27°C° 0.2 mm 5 mps 750 mmHg 82%
    20:00 +27°C° 0.7 mm 5 mps 751 mmHg 85%
    21:00 +26°C° 0.7 mm 5 mps 751 mmHg 88%
    22:00 +26°C° 0.7 mm 5 mps 752 mmHg 91%
    23:00 +26°C° 0.6 mm 5 mps 752 mmHg 92%

    27 February, Monday

    Time Temperature Precipitation Wind Pressure Humidity
    00:00 +25°C° 0.6 mm 4 mps 752 mmHg 94%
    01:00 +25°C° 0.6 mm 4 mps 751 mmHg 95%
    02:00 +25°C° 0.2 mm 4 mps 751 mmHg 96%
    03:00 +23°C° 0.2 mm 4 mps 751 mmHg 96%
    04:00 +23°C° 0.2 mm 4 mps 751 mmHg 97%
    05:00 +23°C° 0.1 mm 4 mps 751 mmHg 96%
    06:00 +25°C° 0.1 mm 4 mps 752 mmHg 96%
    07:00 +25°C° 0.1 mm 4 mps 752 mmHg 95%
    08:00 +26°C° 0.1 mm 4 mps 753 mmHg 87%
    09:00 +28°C° 0.1 mm 5 mps 753 mmHg 79%
    10:00 +30°C° 0.1 mm 5 mps 753 mmHg 70%
    11:00 +32°C° 0.2 mm 5 mps 752 mmHg 65%
    12:00 +33°C° 0.2 mm 5 mps 752 mmHg 59%
    13:00 +34°C° 0.2 mm 5 mps 751 mmHg 54%
    14:00 +34°C° 0.2 mm 5 mps 751 mmHg 57%
    15:00 +33°C° 0.2 mm 5 mps 750 mmHg 59%
    16:00 +33°C° 0.2 mm 6 mps 750 mmHg 62%
    17:00 +30°C° 0.7 mm 6 mps 750 mmHg 70%
    18:00 +28°C° 0.7 mm 6 mps 751 mmHg 78%
    19:00 +27°C° 0.7 mm 6 mps 751 mmHg 86%
    20:00 +26°C° 0.3 mm 6 mps 752 mmHg 89%
    21:00 +26°C° 0.3 mm 6 mps 752 mmHg 91%
    22:00 +26°C° 0.3 mm 6 mps 753 mmHg 93%
    23:00 +25°C° 0.6 mm 5 mps 752 mmHg 94%

    28 February, Tuesday

    Time Temperature Precipitation Wind Pressure Humidity
    00:00 +25°C° 0.6 mm 5 mps 752 mmHg 95%
    01:00 +23°C° 0.6 mm 5 mps 752 mmHg 97%
    02:00 +23°C° 0.3 mm 5 mps 752 mmHg 97%
    03:00 +23°C° 0.3 mm 5 mps 751 mmHg 97%
    04:00 +23°C° 0.3 mm 5 mps 751 mmHg 97%
    05:00 +23°C° 0.3 mm 5 mps 752 mmHg 96%
    06:00 +23°C° 0.3 mm 5 mps 752 mmHg 95%
    07:00 +23°C° 0.3 mm 5 mps 753 mmHg 94%
    08:00 +26°C° 0.1 mm 5 mps 753 mmHg 87%
    09:00 +28°C° 0.1 mm 5 mps 753 mmHg 79%
    10:00 +29°C° 0.1 mm 5 mps 753 mmHg 72%
    11:00 +30°C° 0.4 mm 5 mps 753 mmHg 68%
    12:00 +32°C° 0.4 mm 5 mps 752 mmHg 64%
    13:00 +33°C° 0.4 mm 6 mps 751 mmHg 60%
    14:00 +33°C° 0.4 mm 6 mps 751 mmHg 62%
    15:00 +33°C° 0.4 mm 6 mps 751 mmHg 64%
    16:00 +32°C° 0.4 mm 6 mps 750 mmHg 67%
    17:00 +30°C° 0.6 mm 6 mps 751 mmHg 73%
    18:00 +28°C° 0.6 mm 6 mps 751 mmHg 79%
    19:00 +27°C° 0.6 mm 5 mps 752 mmHg 85%
    20:00 +26°C° 0.6 mm 5 mps 752 mmHg 88%
    21:00 +26°C° 0.6 mm 5 mps 752 mmHg 90%
    22:00 +25°C° 0.6 mm 5 mps 753 mmHg 93%
    23:00 +25°C° 0.6 mm 5 mps 753 mmHg 94%
    Show more